Regional Weather Roundup
Issued by NWS San Diego, CA

Current Version | Previous Version | Text Only | Print | Product List | Glossary On
Versions: 1 2 3 4 5 6 7 8 9 10 11 12 13 14 15 16 17 18 19 20 21 22 23 24 25 26 27
000
ASUS46 KSGX 260811
RWRSGX

SAN DIEGO HOURLY WEATHER ROUNDUP
NATIONAL WEATHER SERVICE SAN DIEGO CA
100 AM PDT TUE JUL 26 2016

NOTE: "FAIR" INDICATES FEW OR NO CLOUDS BELOW 12,000 FEET WITH NO
SIGNIFICANT WEATHER AND/OR OBSTRUCTIONS TO VISIBILITY.

CAZ042-043-060-061-PZZ750-775-260900-

GREATER SAN DIEGO AREA

CITY           SKY/WX    TMP DP  RH WIND       PRES   REMARKS
LINDBERGH FLD  PTCLDY    68  66  93 N5        29.92F
POINT LOMA       N/A     67  64  91 NW8         N/A
NATIONAL CITY    N/A     71  67  87 CALM      29.92F
CHULA VISTA      N/A     69  67  93 CALM      29.84F
IMPERIAL BEACH CLEAR     72  66  81 NW5       29.91F
BROWN FIELD    CLEAR     70  66  87 CALM      29.92F
MIRAMAR MCAS   PTCLDY    69  65  86 N6        29.91F
MONTGOMERY FLD CLEAR     70  65  84 N5        29.92F

$$

NORTH SAN DIEGO COUNTY

CITY           SKY/WX    TMP DP  RH WIND       PRES   REMARKS
CAMP PENDLETON CLEAR     67  65  93 MISG      29.91F FOG
OCEANSIDE AP   CLEAR     66  62  87 CALM      29.90F
OCEANSIDE HBR    N/A     71  68  91 CALM      29.93F
VISTA            N/A     68  63  84 CALM      29.89F
CARLSBAD       CLEAR     70  66  87 CALM      29.91F
DEL MAR          N/A     68  66  94 CALM      29.93F
LA JOLLA SCRIP   N/A     69  67  93 NW2       29.90F
FALLBROOK        N/A     68  67  96 CALM      29.92S
ESCONDIDO        N/A     71  66  83 W1        29.92F
SAN MARCOS       N/A     68  59  73 CALM      29.93F
POWAY            N/A     68  63  83 CALM      29.91F

$$

EAST SAN DIEGO COUNTY

CITY           SKY/WX    TMP DP  RH WIND       PRES   REMARKS
RAMONA         CLEAR     67  56  67 CALM      29.95F
SANTEE LAKES     N/A     70  64  81 CALM      29.89F
LA MESA          N/A     69  65  88 CALM      29.84F
JAMUL            N/A     68  64  86 CALM      29.89F
DESCANSO N       N/A     67  56  67 E5        29.76F
CAMPO            N/A     67  58  72 N5        29.98F

$$

ORANGE COUNTY AND THE LOS ANGELES BASIN

CITY           SKY/WX    TMP DP  RH WIND       PRES   REMARKS
JOHN WAYNE AP  PTCLDY    71  66  84 CALM      29.91F
LAKE FOREST FR   N/A     69  62  79 CALM      29.77F
HUNTINGTON BCH   N/A     70  67  90 W3        29.93S
LOS ALAMITOS   MOCLDY    71  66  84 S2        29.91S
FULLERTON      PTCLDY    74  66  76 SE6       29.90F
LONG BEACH     MOCLDY    73  66  78 NW5       29.91F
L.A. AP        MOCLDY    69  64  84 W7        29.92S
L.A. DOWNTOWN  CLOUDY    69  64  84 W3        29.91F

$$

THE INLAND EMPIRE

CITY           SKY/WX    TMP DP  RH WIND       PRES   REMARKS
CORONA         PTCLDY    72  65  78 W5        29.93S
CHINO          PTCLDY    74  59  59 W6        29.93F
ONTARIO        MOCLDY    75  60  59 W8        29.93F
SAN BERNARDINO FAIR      78  57  48 SW3       29.94S
RIVERSIDE AP   PTCLDY    75  61  61 W3        29.93S
MORENO VALLEY    N/A     77  57  48 CALM      28.07S
MARCH ARB      PTCLDY    74  55  50 W2        29.96S
HORSETHIEF CYN   N/A     73  57  56 CALM      29.92S
PERRIS           N/A     75  62  63 SE2       29.95S
HEMET EAST       N/A     91  41  17 CALM      29.82S
FRENCH VALLEY  FAIR      72  59  64 CALM      29.96S
TEMECULA         N/A     73  63  71 CALM      29.93R

$$

SAN BERNARDINO AND RIVERSIDE COUNTY MOUNTAINS

CITY           SKY/WX    TMP DP  RH WIND       PRES   REMARKS
BIG BEAR AP    PTCLDY    57  41  54 CALM      30.31S
ANGELUS OAKS     N/A     68  46  45 CALM      29.75F
PINE COVE        N/A     68  48  48 NW2       29.85S

$$

SOUTHERN DESERT INCLUDING THE COACHELLA VALLEY

CITY           SKY/WX    TMP DP  RH WIND       PRES   REMARKS
PALM SPRINGS   PTCLDY    92  54  27 NW13      29.81S
THOUSAND PALMS   N/A     93  57  29 NW6       29.76F
PALM DESERT      N/A     92  59  33 CALM      27.13S
THERMAL        PTCLDY    85  60  42 CALM      29.73F
BLYTHE         PTCLDY    97  63  32 SW10      29.79R HX  98
IMPERIAL AP    PTCLDY    94  66  39 SE10      29.77R HX  97
EL CENTRO NAS  PTCLDY    91  63  39 SE13      29.79R
YUMA AZ        TSTM      87  72  60 S12       29.79
MEXICALI       PTCLDY    93  61  33 E21       29.80

$$

UPPER DESERT

CITY           SKY/WX    TMP DP  RH WIND       PRES   REMARKS
VICTORVILLE AP PTCLDY    81  48  32 S6        29.99F
HESPERIA         N/A     78  54  43 W5        29.91F
PALMDALE       PTCLDY    82  42  24 SW12      29.97F
LANCASTER      PTCLDY    83  43  24 SW12      29.95F
EDWARDS AFB    PTCLDY    80  41  24 SW10      29.92F
DAGGETT        CLEAR     88  45  22 W13       29.90S
29 PALMS N     MOCLDY    91  44  19 N5        29.97S
NEEDLES        PTCLDY   100  56  23 S9        29.80R HX  99

$$

REGIONAL REPORTS

CITY           SKY/WX    TMP DP  RH WIND       PRES   REMARKS
SANTA BARBARA  CLOUDY    63  62  97 CALM      29.89F
SANDBERG       CLEAR     79  39  23 NW7       30.14F
LAS VEGAS NV   MOCLDY    95  42  16 S9        29.82S
PHOENIX AZ     MOCLDY    96  55  25 NW14      29.80S
TIJUANA        CLEAR     68  63  83 CALM      29.94F
ENSENADA NW      N/A     70  32  24 NE2       29.88F

$$

OFFSHORE ISLANDS

CITY           SKY/WX    TMP DP  RH WIND       PRES   REMARKS
CATALINA ARPT  CLEAR     70  51  51 E3        29.96F
SAN NICOLAS IS CLOUDY    64 N/A N/A CALM      29.93S

$$

MARINE AND OFFSHORE BUOY REPORTS

STATION/POSITION SKY/WX   TEMP    WIND        PRES    SWELL
                          AIR SEA DIR/SP/G            HT/PER/DIR
                          (F)     (DEG/KT/KT) (MB)    (FT/S/D)
TANNER BANKS               62 66  290/  6/  8 1013.5S   7/320/10
S CLEMENTE BASIN           67 70  290/  4/  6 1012.7F   3/190/13
SAN NICOLAS IS.               62                N/A     3/190/13
SO. S. ROSA ISLA           58 66  300/ 10/ 12 1012.9F   7/320/10
W. S. BARBARA CH           57 61  320/ 14/ 17 1011.9F   3/320/10
M. S. BARBARA CH                  240/  6/  8 1013.3F
S. MONICA BASIN            67 72  270/  4/  6 1012.6R
S PEDRO CHANNEL               72                N/A     2/160/14
OCEANSIDE OFFSHR              75                N/A     2/210/14
TORREY PINES OTR              74                N/A     2/200/14
LA JOLLA 1                 71 72  310/  3/  3 1013.2R
SAN DIEGO BAY                 78              1013.4F
POINT LOMA SOUTH              71                N/A     2/190/13

$$





USA.gov is the U.S. government's official web portal to all federal, state and local government web resources and services.